Flag for U.S.A. Weather past 2 weeks in Hereford, Texas, U.S.A.

Now
50 °F

Clear.


Feels Like: 47 °F
Forecast: 54 / 79 °F
Wind: 8 mph from South

Location: Clovis Municipal

Current Time: May 24, 2015 at 5:09:50 AM

Latest Report: May 24, 2015 at 4:35 AM


Visibility: 10 mi

Pressure: 29.90 "Hg

Humidity: 88%

Dew point: 46 °F

Location of HerefordLocation

Historic Weather in Hereford — Graph

°F

Hereford temperature yesterday

Maximum temperature yesterday: 79 °F (at 3:35 PM)
Minimum temperature yesterday: 54 °F (at 5:15 AM)
Average temperature yesterday: 66 °F

Past Weeks' High & Low Weather Summary

 TemperatureHumidityPressure
High79 °F (May 18, 3:55 PM)100% (May 23, 12:55 AM)30.31 "Hg (May 23, 12:55 AM)
Low45 °F (May 20, 8:35 AM)22% (May 23, 6:55 PM)29.77 "Hg (May 16, 3:15 PM)
Average59 °F68%30.03 "Hg
* Reported May 9 3:15 AM — May 24 3:55 AM, Hereford, Weather by CustomWeather, © 2015

Note: Actual official high and low records may vary slightly from our data, if they occured in-between our weather recording intervals... More about our weather records

Advertising

Hereford weather history for previous 24 hours

 ConditionsComfort  
Time TempWeatherWind HumidityBarometerVisibility
3:55 AM
Sun, May 24
50 °FClear.14 mph88%29.90 "Hg10 mi
3:35 AM52 °FClear.9 mph88%29.87 "Hg10 mi
3:15 AM54 °FClear.12 mph82%29.87 "Hg10 mi
2:55 AM54 °FClear.13 mph82%29.87 "Hg10 mi
2:35 AM52 °FClear.13 mph88%29.87 "Hg10 mi
2:15 AM52 °FClear.9 mph88%29.88 "Hg10 mi
1:55 AM54 °FClear.10 mph82%29.88 "Hg10 mi
1:35 AM54 °FClear.10 mph82%29.89 "Hg10 mi
1:15 AM54 °FClear.9 mph82%29.88 "Hg10 mi
12:55 AM54 °FClear.8 mph82%29.89 "Hg10 mi
12:35 AM55 °FClear.9 mph77%29.89 "Hg10 mi
12:15 AM55 °FClear.10 mph77%29.90 "Hg10 mi
11:55 PM
Sat, May 23
55 °FClear.12 mph77%29.91 "Hg10 mi
11:35 PM57 °FClear.9 mph72%29.91 "Hg10 mi
11:15 PM57 °FClear.9 mph72%29.90 "Hg10 mi
10:55 PM59 °FClear.12 mph68%29.89 "Hg10 mi
10:35 PM61 °FClear.14 mph63%29.87 "Hg10 mi
10:15 PM63 °FClear.16 mph59%29.87 "Hg10 mi
9:55 PM63 °FClear.17 mph64%29.82 "Hg10 mi
9:35 PM64 °FSunny.12 mph64%29.82 "Hg10 mi
9:15 PM64 °FSunny.13 mph64%N/A10 mi
8:55 PM63 °FSunny.12 mph52%N/A10 mi
8:35 PM66 °FSunny.10 mph35%N/A10 mi
8:15 PM70 °FSunny.10 mph31%N/A10 mi
7:55 PM70 °FSunny.12 mph31%N/A10 mi
7:35 PM72 °FSunny.13 mph27%N/A10 mi
7:15 PM73 °FSunny.16 mph25%N/A10 mi
6:55 PM75 °FSunny.20 mph22%N/A10 mi
6:35 PM75 °FSunny.18 mph25%N/A10 mi
6:15 PM75 °FSunny.17 mph24%29.85 "Hg10 mi
5:55 PM79 °FSunny.24 mph23%29.83 "Hg10 mi
5:35 PM79 °FScattered clouds.24 mph23%29.86 "Hg10 mi
5:15 PM79 °FPassing clouds.20 mph23%29.85 "Hg10 mi
4:55 PM79 °FSunny.16 mph24%29.86 "Hg10 mi
4:35 PM79 °FSunny.20 mph24%29.87 "Hg10 mi
4:15 PM79 °FSunny.18 mph28%29.89 "Hg10 mi
3:55 PM79 °FSunny.18 mph30%29.91 "Hg10 mi
3:35 PM79 °FSunny.23 mph30%29.91 "Hg10 mi
3:15 PM77 °FSunny.21 mph34%29.93 "Hg10 mi
2:55 PM77 °FSunny.24 mph34%29.94 "Hg10 mi
2:35 PM77 °FSunny.18 mph34%29.94 "Hg10 mi
2:15 PM75 °FSunny.22 mph39%29.95 "Hg10 mi
1:55 PM75 °FSunny.13 mph39%29.95 "Hg10 mi
1:35 PM75 °FScattered clouds.17 mph36%29.97 "Hg10 mi
1:15 PM73 °FPartly sunny.12 mph47%29.96 "Hg10 mi
12:55 PM75 °FPassing clouds.13 mph47%29.96 "Hg10 mi
12:35 PM73 °FSunny.12 mph50%29.97 "Hg10 mi
12:15 PM73 °FSunny.12 mph53%29.97 "Hg10 mi
11:55 AM72 °FPassing clouds.14 mph57%29.98 "Hg10 mi
11:35 AM72 °FScattered clouds.13 mph61%29.97 "Hg10 mi
11:15 AM70 °FScattered clouds.13 mph64%29.97 "Hg10 mi
10:55 AM70 °FScattered clouds.13 mph69%29.98 "Hg10 mi
10:35 AM70 °FScattered clouds.15 mph78%29.99 "Hg10 mi
10:15 AM66 °FBroken clouds.15 mph83%30.01 "Hg10 mi
9:55 AM66 °FCloudy.15 mph88%30.02 "Hg9 mi
9:35 AM64 °FMostly cloudy.14 mph94%30.01 "Hg8 mi
9:15 AM64 °FLow clouds.15 mph88%30.01 "Hg7 mi
8:55 AM63 °FLow clouds.14 mph94%30.01 "Hg5 mi
8:35 AM63 °FLow clouds.10 mph94%30.01 "Hg5 mi
8:15 AM63 °FLow clouds.9 mph94%30.00 "Hg5 mi
7:55 AM63 °FLow clouds.8 mph94%30.00 "Hg5 mi
7:35 AM61 °FLow clouds.No wind88%29.98 "Hg7 mi
7:15 AM57 °FLow clouds.7 mph94%29.98 "Hg10 mi
6:55 AM57 °FThundershowers. Low clouds.14 mph94%30.00 "Hg10 mi
6:35 AM57 °FLow clouds.6 mph94%30.00 "Hg10 mi
6:15 AM55 °FThundershowers. Low clouds.8 mph88%29.97 "Hg10 mi
5:55 AM55 °FThundershowers. Low clouds.7 mph88%29.96 "Hg10 mi
5:35 AM54 °FThunderstorms. Low clouds.15 mph94%29.96 "Hg10 mi
5:15 AM54 °FThunderstorms. Mostly cloudy.10 mph82%29.96 "Hg10 mi
Weather by CustomWeather, © 2015

See weather overviewHow to use our weather pages